Regional Weather Roundup
Issued by NWS

Home | Current Version | Previous Version | Graphics & Text | Print | Product List | Glossary On
Versions: 1 2 3 4 5 6 7 8 9 10 11 12 13 14 15 16 17 18 19 20 21 22 23 24 25 26 27 28 29 30 31 32 33 34 35 36 37 38 39 40 41 42 43 44 45 46 47 48 49 50
000
ASUS43 KDMX 190201
RWRIA

WEATHER ROUNDUP FOR IOWA
NATIONAL WEATHER SERVICE DES MOINES IA
800 PM CST THU JAN 18 2018

NOTE: "FAIR" INDICATES FEW OR NO CLOUDS BELOW 12,000 FEET WITH NO
SIGNIFICANT WEATHER AND/OR OBSTRUCTIONS TO VISIBILITY.

* - THESE STATIONS ARE NOT NWS STATIONS...THUS NOT UNDER NWS
QUALITY CONTROL.  THEY ALSO DO NOT REPORT WEATHER SUCH
AS PRECIPITATION OR FOG.

IAZ001>003-012>014-020>022-031>034-043>046-190300-
   NORTHWEST IOWA

CITY           SKY/WX    TMP DP  RH WIND       PRES   REMARKS
CARROLL *      CLOUDY    30  23  74 SW22      29.89F WCI  17
CHEROKEE *     CLOUDY    29  25  82 S5        29.86F WCI  24
DENISON *      CLOUDY    28  21  74 S10       29.91F WCI  19
LE MARS *      CLOUDY    30  25  80 S8        29.85F WCI  23
ORANGE CITY *  CLOUDY    30  28  93 S8        29.84F WCI  23
SHELDON *      CLOUDY    30  27  86 S7        29.81F WCI  23
SIOUX CITY     CLOUDY    27  24  89 E7        29.87S WCI  19
SPENCER        CLOUDY    32  25  75 SW10      29.84F WCI  24
STORM LAKE *   CLOUDY    28  23  80 SW10      29.86S WCI  19
$$

IAZ055>058-069>071-079>083-090>094-190300-
   SOUTHWEST IOWA

CITY           SKY/WX    TMP DP  RH WIND       PRES   REMARKS
ATLANTIC *     CLOUDY    27  23  86 S10       29.94F WCI  17
AUDUBON *      CLOUDY    30  23  74 S12       29.93F WCI  21
CLARINDA *     CLOUDY    28  25  86 S7        30.00  WCI  21
COUNCIL BLFS * CLOUDY    30  25  80 SW10      29.93F WCI  21
CRESTON *      CLOUDY    32  23  69 SW13      29.97S WCI  22
HARLAN  *      CLOUDY    28  23  80 SW12      29.96F WCI  18
LAMONI         CLOUDY    32  21  64 S15       29.98F WCI  22
RED OAK *      CLOUDY    28  25  86 S3        29.96F
SHENANDOAH *   CLOUDY    30  25  80 S6        29.98F WCI  24
$$

IAZ047>049-059>061-072>074-084-190300-
   CENTRAL IOWA

CITY           SKY/WX    TMP DP  RH WIND       PRES   REMARKS
AMES           CLOUDY    28  23  81 SW7       29.93S WCI  21
ANKENY *       CLOUDY    32  21  64 SW10      29.96S WCI  24
BOONE *        CLOUDY    30  23  74 SW15      29.90F WCI  19
CHARITON *     CLOUDY    34  23  64 SW14G21   29.96F WCI  24
DES MOINES     CLOUDY    32  21  64 SW9       29.95S WCI  24
GRINNELL*      CLOUDY    31  22  68 SW13      29.96R WCI  22
KNOXVILLE *    CLOUDY    34  19  55 SW15      29.94F WCI  24
MARSHALLTOWN   CLOUDY    30  22  72 SW14      29.93R WCI  19
NEWTON *       CLOUDY    32  21  64 SW15      29.95S WCI  22
PELLA *        CLOUDY    33  21  63 SW9       29.98S WCI  25
PERRY *          N/A     28  21  77 S8        29.92F WCI  20
$$

IAZ004>006-015-016-023>025-035-036-190300-
   NORTH CENTRAL IOWA

CITY           SKY/WX    TMP DP  RH WIND       PRES   REMARKS
ALGONA *       CLOUDY    28 N/A N/A S13       29.85F WCI  18
CLARION *      CLOUDY    27  27 100 SW9       29.89F WCI  17
ESTHERVILLE    CLOUDY    32  27  81 SW10      29.82F WCI  24
FORT DODGE *   CLOUDY    29  22  75 SW12      29.90S WCI  19
MASON CITY     CLOUDY    30  22  72 SW16      29.87F WCI  19
FOREST CITY *    N/A     30  25  80 SW13      29.86S WCI  20
WEBSTER CITY * CLOUDY    28  23  80 SW14      29.88F WCI  17
IOWA FALLS *     N/A     30  23  77 SW12      29.92R WCI  20
$$

IAZ007>011-017>019-026>030-037>042-050>054-066-190300-
   NORTHEAST IOWA

CITY           SKY/WX    TMP DP  RH WIND       PRES   REMARKS
CEDAR RAPIDS     N/A     30  21  69 S9        29.94S WCI  22
CHARLES CITY *   N/A     28  23  80 SW10      29.89S WCI  19
CLINTON *        N/A     28  22  78 SW12      29.98F WCI  18
DECORAH *        N/A     28  21  74 S8G14     29.87S WCI  20
DUBUQUE          N/A     27  19  72 SW16      29.91F WCI  15
MONTICELLO *     N/A     28  21  74 S8        29.95R WCI  20
OELWEIN *        N/A     25  25 100 SW10      29.92R WCI  15
WATERLOO         N/A     29  21  72 SW10      29.93R WCI  20
$$

IAZ064-065-067-068-078-190300-
   EAST CENTRAL IOWA

CITY           SKY/WX    TMP DP  RH WIND       PRES   REMARKS
DAVENPORT        N/A     33  20  58 SW17      29.99F WCI  22
IOWA CITY        N/A     32  20  61 SW7       30.00S WCI  26
MT. PLEASANT * CLOUDY    32  21  64 SW16      30.01F WCI  21
MUSCATINE *      N/A     32  21  64 S12       30.01F WCI  23
QUAD CITIES      N/A     32  21  64 SW12      29.98F WCI  23
$$

IAZ062-063-075>077-085>089-095>099-190300-
   SOUTHEAST IOWA

CITY           SKY/WX    TMP DP  RH WIND       PRES   REMARKS
BURLINGTON     CLOUDY    31  19  61 S10       30.02F WCI  22
FAIRFIELD *    CLOUDY    32  19  59 SW15      29.98F WCI  22
FORT MADISON * CLOUDY    34  21  60 SW14      30.03F WCI  24
KEOKUK *       CLOUDY    34  19  55 SW13      30.04S WCI  25
OSKALOOSA *      N/A     30  22  70 SW12      29.97F WCI  21
OTTUMWA        CLOUDY    32  20  61 SW16      29.96F WCI  21
WASHINGTON *   CLOUDY    32  23  69 SW16      29.99F WCI  21
$$

ABBREVIATIONS USED IN REMARKS
   TC - TEMPERATURES IN CELSIUS
  WCI - WIND CHILL INDEX
   HX - HEAT INDEX
  VSB - VISIBILITY
$$





USA.gov is the U.S. government's official web portal to all federal, state and local government web resources and services.